• In Österreich
  • Länderverzeichnis
  • Für 7 Tage
  • Wassertemperatur
  • Satellitenkarten
  • Wetterkarte
  • News
  • Widgets
  • user-avatar
    Anmelden

    Stündliche Wetter Silistra

    Heute, 18 August, Samstag

    Zeit Temperatur Niederschläge Wind Luftdruck Luftfeuchtigkeit
    00:00 +25°C° 0 mm 2 m/S 755 mmHg 51%
    01:00 +25°C° 0 mm 2 m/S 755 mmHg 54%
    02:00 +24°C° 0 mm 2 m/S 755 mmHg 58%
    03:00 +24°C° 0 mm 2 m/S 755 mmHg 62%
    04:00 +22°C° 0 mm 3 m/S 755 mmHg 66%
    05:00 +22°C° 0 mm 3 m/S 755 mmHg 70%
    06:00 +25°C° 0 mm 3 m/S 756 mmHg 63%
    07:00 +26°C° 0 mm 4 m/S 756 mmHg 57%
    08:00 +28°C° 0 mm 4 m/S 756 mmHg 50%
    09:00 +32°C° 0 mm 4 m/S 756 mmHg 42%
    10:00 +34°C° 0 mm 5 m/S 756 mmHg 34%
    11:00 +36°C° 0 mm 5 m/S 756 mmHg 26%
    12:00 +37°C° 0 mm 5 m/S 756 mmHg 24%
    13:00 +37°C° 0 mm 5 m/S 756 mmHg 23%
    14:00 +39°C° 0 mm 5 m/S 756 mmHg 22%
    15:00 +37°C° 0 mm 5 m/S 756 mmHg 22%
    16:00 +37°C° 0 mm 5 m/S 756 mmHg 23%
    17:00 +36°C° 0 mm 4 m/S 756 mmHg 24%
    18:00 +34°C° 0 mm 4 m/S 756 mmHg 28%
    19:00 +30°C° 0 mm 3 m/S 756 mmHg 33%
    20:00 +28°C° 0 mm 2 m/S 757 mmHg 37%
    21:00 +27°C° 0 mm 2 m/S 757 mmHg 40%
    22:00 +26°C° 0 mm 2 m/S 757 mmHg 42%
    23:00 +26°C° 0 mm 1 m/S 757 mmHg 44%

    Morgen, 19 August, Sonntag

    Zeit Temperatur Niederschläge Wind Luftdruck Luftfeuchtigkeit
    00:00 +25°C° 0 mm 1 m/S 757 mmHg 46%
    01:00 +25°C° 0 mm 1 m/S 757 mmHg 47%
    02:00 +24°C° 0 mm 1 m/S 757 mmHg 48%
    03:00 +24°C° 0 mm 1 m/S 757 mmHg 50%
    04:00 +23°C° 0 mm 1 m/S 757 mmHg 52%
    05:00 +23°C° 0 mm 1 m/S 757 mmHg 54%
    06:00 +25°C° 0 mm 2 m/S 757 mmHg 51%
    07:00 +27°C° 0 mm 2 m/S 757 mmHg 49%
    08:00 +29°C° 0 mm 3 m/S 757 mmHg 46%
    09:00 +31°C° 0 mm 3 m/S 757 mmHg 40%
    10:00 +34°C° 0 mm 3 m/S 757 mmHg 34%
    11:00 +36°C° 0 mm 4 m/S 757 mmHg 28%
    12:00 +36°C° 0 mm 4 m/S 757 mmHg 27%
    13:00 +36°C° 0 mm 4 m/S 757 mmHg 27%
    14:00 +36°C° 0 mm 4 m/S 756 mmHg 27%
    15:00 +36°C° 0 mm 4 m/S 756 mmHg 28%
    16:00 +35°C° 0 mm 4 m/S 756 mmHg 30%
    17:00 +35°C° 0 mm 4 m/S 756 mmHg 32%
    18:00 +33°C° 0 mm 4 m/S 756 mmHg 40%
    19:00 +29°C° 0 mm 4 m/S 756 mmHg 48%
    20:00 +27°C° 0 mm 4 m/S 757 mmHg 55%
    21:00 +26°C° 0 mm 3 m/S 757 mmHg 62%
    22:00 +24°C° 0 mm 3 m/S 757 mmHg 69%
    23:00 +23°C° 0 mm 2 m/S 757 mmHg 75%

    übermorgen, 20 August, Montag

    Zeit Temperatur Niederschläge Wind Luftdruck Luftfeuchtigkeit
    00:00 +21°C° 0 mm 2 m/S 757 mmHg 76%
    01:00 +21°C° 0 mm 2 m/S 757 mmHg 77%
    02:00 +21°C° 0 mm 1 m/S 757 mmHg 78%
    03:00 +21°C° 0 mm 1 m/S 757 mmHg 78%
    04:00 +19°C° 0 mm 2 m/S 757 mmHg 78%
    05:00 +19°C° 0 mm 2 m/S 757 mmHg 77%
    06:00 +21°C° 0 mm 2 m/S 757 mmHg 68%
    07:00 +24°C° 0 mm 3 m/S 757 mmHg 58%
    08:00 +26°C° 0 mm 3 m/S 757 mmHg 48%
    09:00 +28°C° 0 mm 4 m/S 757 mmHg 41%
    10:00 +30°C° 0 mm 4 m/S 757 mmHg 34%
    11:00 +33°C° 0 mm 5 m/S 757 mmHg 26%
    12:00 +33°C° 0 mm 5 m/S 757 mmHg 25%
    13:00 +34°C° 0 mm 5 m/S 757 mmHg 24%
    14:00 +35°C° 0 mm 5 m/S 757 mmHg 23%
    15:00 +34°C° 0 mm 5 m/S 756 mmHg 25%
    16:00 +33°C° 0 mm 5 m/S 756 mmHg 26%
    17:00 +33°C° 0 mm 5 m/S 756 mmHg 28%
    18:00 +29°C° 0 mm 5 m/S 756 mmHg 35%
    19:00 +26°C° 0 mm 4 m/S 756 mmHg 42%
    20:00 +24°C° 0 mm 3 m/S 757 mmHg 49%
    21:00 +22°C° 0 mm 3 m/S 757 mmHg 55%
    22:00 +20°C° 0 mm 2 m/S 757 mmHg 60%
    23:00 +19°C° 0 mm 2 m/S 757 mmHg 66%

    21 August, Dienstag

    Zeit Temperatur Niederschläge Wind Luftdruck Luftfeuchtigkeit
    00:00 +20°C° 0 mm 1 m/S 757 mmHg 69%
    01:00 +19°C° 0 mm 1 m/S 757 mmHg 71%
    02:00 +19°C° 0 mm 1 m/S 757 mmHg 74%
    03:00 +18°C° 0 mm 1 m/S 757 mmHg 75%
    04:00 +18°C° 0 mm 1 m/S 757 mmHg 75%
    05:00 +18°C° 0 mm 1 m/S 757 mmHg 76%
    06:00 +20°C° 0 mm 1 m/S 757 mmHg 67%
    07:00 +21°C° 0 mm 2 m/S 758 mmHg 57%
    08:00 +24°C° 0 mm 2 m/S 758 mmHg 47%
    09:00 +26°C° 0 mm 2 m/S 758 mmHg 41%
    10:00 +29°C° 0 mm 3 m/S 758 mmHg 34%
    11:00 +32°C° 0 mm 4 m/S 758 mmHg 27%
    12:00 +33°C° 0 mm 4 m/S 758 mmHg 25%
    13:00 +34°C° 0 mm 4 m/S 757 mmHg 23%
    14:00 +35°C° 0 mm 4 m/S 757 mmHg 21%
    15:00 +34°C° 0 mm 4 m/S 757 mmHg 22%
    16:00 +34°C° 0 mm 4 m/S 757 mmHg 22%
    17:00 +34°C° 0 mm 4 m/S 757 mmHg 23%
    18:00 +30°C° 0 mm 4 m/S 757 mmHg 32%
    19:00 +27°C° 0 mm 3 m/S 757 mmHg 40%
    20:00 +24°C° 0 mm 3 m/S 757 mmHg 49%
    21:00 +22°C° 0 mm 3 m/S 757 mmHg 55%
    22:00 +21°C° 0 mm 2 m/S 757 mmHg 62%
    23:00 +20°C° 0 mm 2 m/S 757 mmHg 69%

    22 August, Mittwoch

    Zeit Temperatur Niederschläge Wind Luftdruck Luftfeuchtigkeit
    00:00 +20°C° 0 mm 1 m/S 757 mmHg 71%
    01:00 +20°C° 0 mm 1 m/S 757 mmHg 73%
    02:00 +17°C° 0 mm 0 m/S 757 mmHg 75%
    03:00 +17°C° 0 mm 0 m/S 757 mmHg 76%
    04:00 +19°C° 0 mm 1 m/S 757 mmHg 76%
    05:00 +18°C° 0 mm 1 m/S 757 mmHg 77%
    06:00 +20°C° 0 mm 1 m/S 758 mmHg 68%
    07:00 +23°C° 0 mm 1 m/S 758 mmHg 59%
    08:00 +25°C° 0 mm 1 m/S 758 mmHg 50%
    09:00 +27°C° 0 mm 2 m/S 758 mmHg 41%
    10:00 +30°C° 0 mm 3 m/S 758 mmHg 32%
    11:00 +33°C° 0 mm 3 m/S 758 mmHg 23%
    12:00 +34°C° 0 mm 4 m/S 758 mmHg 21%
    13:00 +35°C° 0 mm 4 m/S 757 mmHg 20%
    14:00 +36°C° 0 mm 5 m/S 757 mmHg 18%
    15:00 +35°C° 0 mm 5 m/S 757 mmHg 19%
    16:00 +35°C° 0 mm 5 m/S 757 mmHg 21%
    17:00 +34°C° 0 mm 5 m/S 756 mmHg 22%
    18:00 +30°C° 0 mm 4 m/S 757 mmHg 30%
    19:00 +27°C° 0 mm 4 m/S 757 mmHg 37%
    20:00 +24°C° 0 mm 3 m/S 757 mmHg 44%
    21:00 +22°C° 0 mm 3 m/S 757 mmHg 50%
    22:00 +21°C° 0 mm 2 m/S 757 mmHg 55%
    23:00 +20°C° 0 mm 2 m/S 757 mmHg 61%

    23 August, Donnerstag

    Zeit Temperatur Niederschläge Wind Luftdruck Luftfeuchtigkeit
    00:00 +21°C° 0 mm 1 m/S 757 mmHg 62%
    01:00 +20°C° 0 mm 1 m/S 757 mmHg 64%
    02:00 +18°C° 0 mm 0 m/S 757 mmHg 66%
    03:00 +19°C° 0 mm 1 m/S 756 mmHg 66%
    04:00 +19°C° 0 mm 1 m/S 756 mmHg 67%
    05:00 +19°C° 0 mm 1 m/S 756 mmHg 68%
    06:00 +21°C° 0 mm 1 m/S 756 mmHg 59%
    07:00 +23°C° 0 mm 1 m/S 756 mmHg 50%
    08:00 +26°C° 0 mm 1 m/S 756 mmHg 42%
    09:00 +28°C° 0 mm 2 m/S 756 mmHg 35%
    10:00 +31°C° 0 mm 3 m/S 756 mmHg 28%
    11:00 +34°C° 0 mm 4 m/S 756 mmHg 21%
    12:00 +35°C° 0 mm 4 m/S 756 mmHg 19%
    13:00 +36°C° 0 mm 4 m/S 755 mmHg 18%
    14:00 +37°C° 0 mm 5 m/S 755 mmHg 16%
    15:00 +36°C° 0 mm 5 m/S 755 mmHg 17%
    16:00 +36°C° 0 mm 5 m/S 754 mmHg 18%
    17:00 +35°C° 0 mm 5 m/S 754 mmHg 19%
    18:00 +32°C° 0 mm 4 m/S 754 mmHg 25%
    19:00 +29°C° 0 mm 3 m/S 755 mmHg 30%
    20:00 +26°C° 0 mm 3 m/S 755 mmHg 36%
    21:00 +25°C° 0 mm 2 m/S 755 mmHg 39%
    22:00 +24°C° 0 mm 2 m/S 755 mmHg 43%
    23:00 +23°C° 0 mm 1 m/S 755 mmHg 47%
    Mehr zeigen